Simultaneous Nadir Overpasses (SNOs) Predictions

Prediction of SNOs between GOES-17 and METOP-C Satellite Orbit:

Table of predicted SNOs for the next 14.0 days since TLE Epoch: 1/13/2024
Index Date Time (GOES-17) GOES-17 Lat,Lon METOP-C Lat,Lon Distance(km) Time Diff (sec)
1 01/13/2024 16:29:47 -0.00,-104.67 0.13,-105.36 78.45 80
2 01/14/2024 16:11:48 0.00,-104.67 -0.98,-100.37 491.11 80
3 01/16/2024 04:30:48 -0.00,-104.67 -0.05,-104.96 33.31 80
4 01/18/2024 16:28:59 0.00,-104.68 -0.01,-104.52 18.27 80
5 01/21/2024 04:24:40 0.00,-104.68 0.11,-104.12 63.55 80
6 01/22/2024 16:43:31 -0.00,-104.68 0.87,-108.68 455.14 80
7 01/23/2024 16:25:30 0.00,-104.69 -0.21,-103.68 114.62 80
8 01/25/2024 04:44:31 0.00,-104.69 -0.82,-108.27 408.93 80
9 01/26/2024 04:21:11 -0.01,-104.69 0.32,-103.28 160.81 80
